N3FAA Weather Reports


Display with metric or nautical units.
time (UTC)temp
F
wind
direction
speed
MPH
gust
MPH
rain 1hr
in
rain 24hr
in
rain mn
in
humidity
%
barometer
mb
20260506190036 76 145 0.0 0.0 0.00 0.00 0.00 30 1014.6
20260506185533 75 275 0.0 0.0 0.00 0.00 0.00 32 1014.4
20260506185030 77 279 0.0 0.0 0.00 0.00 0.00 32 1014.6
20260506184527 75 149 0.0 0.0 0.00 0.00 0.00 33 1014.7
20260506184025 75 174 0.0 0.0 0.00 0.00 0.00 32 1014.7
20260506183520 74 223 0.0 0.0 0.00 0.00 0.00 33 1014.8
20260506183017 74 156 0.0 0.0 0.00 0.00 0.00 34 1014.9
20260506182515 74 133 0.0 0.0 0.00 0.00 0.00 35 1015.1
20260506182011 74 159 0.0 0.0 0.00 0.00 0.00 34 1014.8
20260506181509 72 159 0.0 0.0 0.00 0.00 0.00 37 1015.0
20260506181006 73 114 0.0 0.0 0.00 0.00 0.00 36 1014.8
20260506180503 74 172 0.0 0.0 0.00 0.00 0.00 36 1014.7
20260506175959 73 168 0.0 0.0 0.00 0.00 0.00 35 1015.0
20260506175455 72 168 0.0 0.0 0.00 0.00 0.00 36 1014.7
20260506174952 72 154 0.0 0.0 0.00 0.00 0.00 36 1014.9
20260506174451 71 153 0.0 0.0 0.00 0.00 0.00 38 1015.2
20260506173946 71 110 0.0 0.0 0.00 0.00 0.00 38 1015.2
20260506173444 71 95 0.0 0.0 0.00 0.00 0.00 37 1015.0
20260506172941 70 99 0.0 0.0 0.00 0.00 0.00 39 1014.9
20260506172439 71 88 1.0 2.0 0.00 0.00 0.00 38 1015.0
20260506171934 70 57 0.0 0.0 0.00 0.00 0.00 39 1015.1
20260506171431 69 180 0.0 0.0 0.00 0.00 0.00 40 1015.1
20260506170924 68 213 0.0 0.0 0.00 0.00 0.00 41 1015.2
20260506170419 69 190 0.0 0.0 0.00 0.00 0.00 39 1015.2
20260506165913 68 335 0.0 0.0 0.00 0.00 0.00 40 1015.1
20260506165411 67 328 0.0 0.0 0.00 0.00 0.00 43 1015.0
20260506164906 67 227 0.0 0.0 0.00 0.00 0.00 42 1015.2
20260506164403 68 254 0.0 0.0 0.00 0.00 0.00 43 1015.2
20260506163901 66 223 0.0 0.0 0.00 0.00 0.00 44 1014.9
20260506163356 66 240 0.0 0.0 0.00 0.00 0.00 44 1015.3
20260506162851 65 281 0.0 0.0 0.00 0.00 0.00 46 1015.0
20260506162349 65 281 0.0 0.0 0.00 0.00 0.00 46 1015.2
20260506161847 65 259 3.0 3.0 0.00 0.00 0.00 46 1015.1
20260506161345 65 274 0.0 0.0 0.00 0.00 0.00 46 1015.1
20260506160842 64 247 8.0 11.0 0.00 0.00 0.00 47 1015.1
20260506160338 64 289 5.0 7.0 0.00 0.00 0.00 47 1015.1
20260506155836 63 262 1.0 3.0 0.00 0.00 0.00 48 1015.2
20260506155333 64 283 6.0 8.0 0.00 0.00 0.00 47 1014.8
20260506153445 62 263 6.0 8.0 0.00 0.00 0.00 50 1015.2
20260506152942 62 272 0.0 0.0 0.00 0.00 0.00 51 1015.1
20260506152439 61 263 4.0 6.0 0.00 0.00 0.00 52 1015.2
20260506151938 61 259 7.0 10.0 0.00 0.00 0.00 53 1015.0
20260506151435 61 274 5.0 7.0 0.00 0.00 0.00 53 1015.2
20260506150932 61 263 2.0 5.0 0.00 0.00 0.00 53 1015.2
20260506150428 60 241 7.0 9.0 0.00 0.00 0.00 54 1014.9
20260506145925 60 252 3.0 6.0 0.00 0.00 0.00 55 1015.0
20260506145421 60 260 0.0 1.0 0.00 0.00 0.00 55 1015.0
20260506144919 59 257 0.0 1.0 0.00 0.00 0.00 56 1015.0
20260506144415 59 237 1.0 3.0 0.00 0.00 0.00 57 1015.1
20260506143914 58 261 7.0 8.0 0.00 0.00 0.00 59 1015.1
20260506143410 57 260 0.0 0.0 0.00 0.00 0.00 61 1014.9
20260506142909 56 248 0.0 0.0 0.00 0.00 0.00 63 1014.9
20260506142407 55 267 1.0 2.0 0.00 0.00 0.00 64 1015.0
20260506141904 55 263 0.0 0.0 0.00 0.00 0.00 66 1015.2
20260506141402 54 263 5.0 7.0 0.00 0.00 0.00 66 1014.9
20260506140900 54 245 3.0 6.0 0.00 0.00 0.00 67 1015.0
20260506140357 53 260 3.0 6.0 0.00 0.00 0.00 68 1014.8
20260506135854 52 257 0.0 0.0 0.00 0.00 0.00 71 1014.6
20260506135351 50 276 0.0 0.0 0.00 0.00 0.00 72 1014.7
20260506134847 49 281 0.0 0.0 0.00 0.00 0.00 74 1014.8
20260506134343 48 281 0.0 0.0 0.00 0.00 0.00 75 1014.7
20260506133840 49 277 0.0 0.0 0.00 0.00 0.00 75 1014.9
20260506133337 47 274 0.0 0.0 0.00 0.00 0.00 78 1014.5
20260506132833 47 281 0.0 0.0 0.00 0.00 0.00 77 1014.5
20260506132331 49 305 0.0 0.0 0.00 0.00 0.00 76 1014.5
20260506131829 49 248 0.0 0.0 0.00 0.00 0.00 77 1014.4
20260506131325 49 249 0.0 0.0 0.00 0.00 0.00 77 1014.4
20260506130822 49 251 0.0 0.0 0.00 0.00 0.00 77 1014.3
20260506130319 49 263 0.0 0.0 0.00 0.00 0.00 78 1014.3
20260506125817 46 243 0.0 0.0 0.00 0.00 0.00 82 1014.4
20260506125315 42 293 0.0 0.0 0.00 0.00 0.00 81 1013.9
20260506124813 42 295 0.0 0.0 0.00 0.00 0.00 81 1014.4
20260506124309 41 295 0.0 0.0 0.00 0.00 0.00 81 1014.3
20260506123807 42 295 0.0 0.0 0.00 0.00 0.00 80 1013.9
20260506123306 43 296 0.0 0.0 0.00 0.00 0.00 78 1013.9
20260506122802 46 297 0.0 0.0 0.00 0.00 0.00 77 1013.8
20260506122259 46 260 0.0 0.0 0.00 0.00 0.00 80 1014.0
20260506121757 45 267 0.0 0.0 0.00 0.00 0.00 81 1014.0
20260506121254 43 273 0.0 0.0 0.00 0.00 0.00 83 1014.1
20260506120751 42 278 0.0 0.0 0.00 0.00 0.00 82 1014.0
20260506120249 41 281 0.0 0.0 0.00 0.00 0.00 84 1014.1
20260506115746 41 282 0.0 0.0 0.00 0.00 0.00 83 1014.0
20260506115244 41 283 0.0 0.0 0.00 0.00 0.00 83 1013.9
20260506114742 41 284 0.0 0.0 0.00 0.00 0.00 83 1013.9
20260506114239 41 284 0.0 0.0 0.00 0.00 0.00 83 1013.8
20260506113738 39 284 0.0 0.0 0.00 0.00 0.00 83 1014.0
20260506113235 39 285 0.0 0.0 0.00 0.00 0.00 81 1013.8
20260506112731 40 285 0.0 0.0 0.00 0.00 0.00 80 1013.9
20260506112229 40 285 0.0 0.0 0.00 0.00 0.00 79 1013.8
20260506111726 43 284 0.0 0.0 0.00 0.00 0.00 77 1013.8
20260506111224 46 275 0.0 0.0 0.00 0.00 0.00 77 1013.8
20260506110721 47 271 0.0 0.0 0.00 0.00 0.00 74 1013.6
20260506110218 51 257 0.0 0.0 0.00 0.00 0.00 73 1013.5
20260506105715 50 226 0.0 0.0 0.00 0.00 0.00 74 1013.6
20260506105211 49 224 0.0 0.0 0.00 0.00 0.00 77 1013.6
20260506104710 48 225 0.0 0.0 0.00 0.00 0.00 78 1013.6
20260506104207 48 225 0.0 0.0 0.00 0.00 0.00 78 1013.5
20260506103704 48 227 0.0 0.0 0.00 0.00 0.00 79 1013.5
20260506103201 48 231 0.0 0.0 0.00 0.00 0.00 79 1013.7
20260506102659 48 234 0.0 0.0 0.00 0.00 0.00 79 1013.6
20260506102156 49 236 0.0 0.0 0.00 0.00 0.00 78 1013.7
20260506101653 49 231 0.0 0.0 0.00 0.00 0.00 78 1013.7
20260506101150 49 232 0.0 0.0 0.00 0.00 0.00 78 1013.6
20260506100648 49 215 0.0 0.0 0.00 0.00 0.00 77 1013.6
20260506100146 50 230 0.0 0.0 0.00 0.00 0.00 77 1013.6
20260506095644 50 200 0.0 0.0 0.00 0.00 0.00 77 1013.7
20260506095140 50 214 0.0 0.0 0.00 0.00 0.00 77 1013.7
20260506094638 50 206 0.0 0.0 0.00 0.00 0.00 76 1013.6
20260506094136 50 223 0.0 0.0 0.00 0.00 0.00 76 1013.7
20260506093634 50 204 0.0 0.0 0.00 0.00 0.00 76 1013.6
20260506093131 50 214 0.0 0.0 0.00 0.00 0.00 76 1013.6
20260506092629 50 213 0.0 0.0 0.00 0.00 0.00 76 1013.7
20260506092126 50 213 0.0 0.0 0.00 0.00 0.00 76 1013.6
20260506091624 50 218 0.0 0.0 0.00 0.00 0.00 76 1013.7
20260506091121 50 206 0.0 0.0 0.00 0.00 0.00 76 1013.7
20260506090619 50 210 0.0 0.0 0.00 0.00 0.00 76 1013.9
20260506090115 50 204 0.0 0.0 0.00 0.00 0.00 77 1013.7
20260506085612 50 237 0.0 0.0 0.00 0.00 0.00 76 1013.5
20260506085108 50 215 0.0 0.0 0.00 0.00 0.00 75 1013.7
20260506084605 50 228 0.0 0.0 0.00 0.00 0.00 75 1013.7
20260506084101 50 230 0.0 0.0 0.00 0.00 0.00 75 1013.9
20260506083559 50 218 0.0 0.0 0.00 0.00 0.00 74 1013.8
20260506083056 50 221 0.0 0.0 0.00 0.00 0.00 74 1013.7
20260506082552 50 225 0.0 0.0 0.00 0.00 0.00 73 1013.8
20260506082048 50 214 0.0 0.0 0.00 0.00 0.00 73 1013.8
20260506081547 50 214 0.0 0.0 0.00 0.00 0.00 73 1013.8
20260506081043 50 211 0.0 0.0 0.00 0.00 0.00 74 1013.6
20260506080541 50 208 0.0 0.0 0.00 0.00 0.00 74 1013.8
20260506073525 49 211 0.0 0.0 0.00 0.00 0.00 74 1013.8
20260506073022 49 214 0.0 0.0 0.00 0.00 0.00 74 1013.8
20260506072519 49 226 0.0 0.0 0.00 0.00 0.00 73 1013.8
20260506072016 50 234 0.0 0.0 0.00 0.00 0.00 73 1013.6
20260506071514 50 228 0.0 0.0 0.00 0.00 0.00 72 1013.7
20260506071011 50 215 0.0 0.0 0.00 0.00 0.00 72 1013.6
20260506070509 50 213 0.0 0.0 0.00 0.00 0.00 71 1013.5
20260506062446 51 210 0.0 0.0 0.00 0.00 0.00 69 1013.2
20260506061942 51 227 0.0 0.0 0.00 0.00 0.00 68 1012.9
20260506061438 51 231 0.0 0.0 0.00 0.00 0.00 68 1013.0
20260506060936 52 217 0.0 0.0 0.00 0.00 0.00 68 1012.9
20260506060434 53 235 0.0 0.0 0.00 0.00 0.00 67 1012.9
20260506051406 53 229 0.0 0.0 0.00 0.00 0.00 68 1012.5
20260506050903 53 233 0.0 0.0 0.00 0.00 0.00 68 1012.5
20260506050401 53 237 0.0 0.0 0.00 0.00 0.00 68 1012.5
20260506044851 53 205 0.0 0.0 0.00 0.00 0.00 68 1012.3
20260506044349 53 237 0.0 0.0 0.00 0.00 0.00 68 1012.2
20260506043846 53 244 0.0 0.0 0.00 0.00 0.00 67 1012.0
20260506043343 53 231 0.0 0.0 0.00 0.00 0.00 67 1012.3
20260506042841 53 227 0.0 0.0 0.00 0.00 0.00 67 1012.2
20260506042340 53 237 0.0 0.0 0.00 0.00 0.00 67 1012.3
20260506041839 53 249 0.0 0.0 0.00 0.00 0.00 67 1012.0
20260506041335 53 230 0.0 0.0 0.00 0.00 0.00 67 1012.1
20260506040832 53 230 0.0 0.0 0.00 0.00 0.00 67 1012.0
20260506040330 53 235 0.0 0.0 0.00 0.00 0.00 67 1012.0
20260506035825 53 245 0.0 0.0 0.00 0.00 0.00 67 1012.0
20260506035323 53 244 0.0 0.0 0.00 0.00 0.00 67 1011.8
20260506034820 53 247 0.0 0.0 0.00 0.00 0.00 67 1011.7
20260506034317 54 229 0.0 0.0 0.00 0.00 0.00 66 1011.7
20260506033815 54 245 0.0 0.0 0.00 0.00 0.00 66 1011.6
20260506033311 54 232 0.0 0.0 0.00 0.00 0.00 66 1011.7
20260506032808 54 237 7.0 11.0 0.00 0.00 0.00 66 1011.6
20260506032306 54 238 0.0 0.0 0.00 0.00 0.00 66 1011.5
20260506031802 54 254 0.0 0.0 0.00 0.00 0.00 66 1011.3
20260506031259 54 242 0.0 0.0 0.00 0.00 0.00 66 1011.4
20260506030757 54 236 0.0 0.0 0.00 0.00 0.00 66 1011.0
20260506030255 54 220 0.0 0.0 0.00 0.00 0.00 65 1011.3
20260506025751 55 244 9.0 11.0 0.00 0.00 0.00 64 1011.4
20260506025247 55 234 6.0 8.0 0.00 0.00 0.00 64 1011.3
20260506024745 55 247 7.0 10.0 0.00 0.00 0.00 64 1011.0
20260506024241 55 251 7.0 9.0 0.00 0.00 0.00 64 1010.9
20260506023737 55 241 11.0 13.0 0.00 0.00 0.00 63 1011.0
20260506023235 55 232 2.0 11.0 0.00 0.00 0.00 63 1011.0
20260506022731 56 230 11.0 15.0 0.00 0.00 0.00 63 1010.6
20260506022229 56 253 7.0 9.0 0.00 0.00 0.00 62 1010.9
20260506021727 57 252 10.0 11.0 0.00 0.00 0.00 61 1010.5
20260506021224 58 245 11.0 15.0 0.00 0.00 0.00 60 1010.7
20260506020720 58 297 10.0 11.0 0.00 0.00 0.00 55 1010.7
20260506020218 59 239 8.0 11.0 0.00 0.00 0.00 55 1010.4
20260506015716 59 246 9.0 11.0 0.00 0.00 0.00 55 1010.7
20260506015213 59 280 9.0 11.0 0.00 0.00 0.00 56 1010.5
20260506014710 59 258 11.0 15.0 0.00 0.00 0.00 56 1010.3
20260506014206 59 255 11.0 13.0 0.00 0.00 0.00 56 1010.2
20260506013704 59 247 9.0 11.0 0.00 0.00 0.00 57 1010.1
20260506013201 59 223 10.0 15.0 0.00 0.00 0.00 56 1010.3
20260506012657 60 253 12.0 15.0 0.00 0.00 0.00 55 1010.4
20260506012154 60 253 12.0 15.0 0.00 0.00 0.00 54 1010.3
20260506011651 61 272 14.0 20.0 0.00 0.00 0.00 53 1010.4
20260506011147 60 259 10.0 13.0 0.00 0.00 0.00 53 1010.4
20260506010646 61 283 9.0 13.0 0.00 0.00 0.00 52 1010.1
20260506010143 61 259 6.0 9.0 0.00 0.00 0.00 52 1010.1
20260506005640 62 269 10.0 11.0 0.00 0.00 0.00 50 1010.3
20260506005136 62 288 10.0 13.0 0.00 0.00 0.00 50 1010.1
20260506004633 61 272 9.0 14.0 0.00 0.00 0.00 51 1010.0
20260506004130 62 269 14.0 18.0 0.00 0.00 0.00 50 1010.1
20260506003626 62 264 10.0 16.0 0.00 0.00 0.00 49 1010.0
20260506003123 62 262 9.0 10.0 0.00 0.00 0.00 50 1009.9
20260506002619 62 257 9.0 13.0 0.00 0.00 0.00 49 1009.8
20260506002114 62 271 9.0 13.0 0.00 0.00 0.00 50 1009.9
20260506001611 63 269 12.0 16.0 0.00 0.00 0.00 48 1009.8
20260506001108 63 273 9.0 11.0 0.00 0.00 0.00 47 1009.8
20260506000606 63 285 11.0 16.0 0.00 0.00 0.00 49 1009.4
20260505235601 64 277 12.0 15.0 0.00 0.00 0.00 45 1009.3
20260505235058 64 280 11.0 14.0 0.00 0.00 0.00 44 1009.2
20260505234554 65 250 9.0 10.0 0.00 0.00 0.00 43 1009.4
20260505234051 64 237 10.0 13.0 0.00 0.00 0.00 43 1009.3
20260505233549 64 278 10.0 13.0 0.00 0.00 0.00 42 1009.4
20260505233046 64 289 11.0 13.0 0.00 0.00 0.00 45 1009.3
20260505232544 66 278 14.0 17.0 0.00 0.00 0.00 41 1009.1
20260505232041 65 265 8.0 11.0 0.00 0.00 0.00 42 1009.5
20260505231538 66 273 9.0 13.0 0.00 0.00 0.00 41 1009.4
20260505231037 66 237 6.0 8.0 0.00 0.00 0.00 41 1009.4
20260505230533 65 237 7.0 9.0 0.00 0.00 0.00 43 1009.4
20260505230030 65 245 16.0 17.0 0.00 0.00 0.00 43 1009.2
20260505225527 64 237 10.0 14.0 0.00 0.00 0.00 44 1009.5
20260505225022 65 273 10.0 13.0 0.00 0.00 0.00 44 1009.3
20260505224519 64 264 9.0 11.0 0.00 0.00 0.00 46 1009.8
20260505224017 66 277 12.0 16.0 0.00 0.00 0.00 42 1009.6
20260505223514 66 291 9.0 10.0 0.00 0.00 0.00 41 1009.6
20260505223010 65 250 8.0 10.0 0.00 0.00 0.00 42 1009.8
20260505222501 66 278 7.0 10.0 0.00 0.00 0.00 42 1009.6
20260505221956 65 273 8.0 9.0 0.00 0.00 0.00 41 1009.8
20260505221454 65 260 11.0 14.0 0.00 0.00 0.00 40 1009.6
20260505220951 66 250 9.0 10.0 0.00 0.00 0.00 40 1009.8
20260505220448 66 212 7.0 10.0 0.00 0.00 0.00 39 1009.8
20260505215946 66 257 10.0 13.0 0.00 0.00 0.00 40 1009.6
20260505215444 66 251 11.0 13.0 0.00 0.00 0.00 39 1009.9
20260505214941 67 287 10.0 13.0 0.00 0.00 0.00 40 1009.9
20260505214439 65 240 7.0 10.0 0.00 0.00 0.00 42 1009.8
20260505213936 67 242 7.0 10.0 0.00 0.00 0.00 40 1009.6
20260505213434 66 248 12.0 16.0 0.00 0.00 0.00 39 1009.9
20260505212930 66 266 8.0 10.0 0.00 0.00 0.00 40 1009.9
20260505212427 67 213 8.0 10.0 0.00 0.00 0.00 43 1010.0
20260505211923 67 261 14.0 18.0 0.00 0.00 0.00 41 1009.9
20260505211421 66 275 7.0 9.0 0.00 0.00 0.00 43 1010.0
20260505210917 66 251 13.0 17.0 0.00 0.00 0.00 45 1009.9
20260505210423 65 226 10.0 11.0 0.00 0.00 0.00 45 1009.9
20260505205911 65 241 11.0 16.0 0.00 0.00 0.00 45 1009.9
20260505205410 64 243 13.0 16.0 0.00 0.00 0.00 45 1009.8
20260505204906 64 236 6.0 9.0 0.00 0.00 0.00 47 1010.0
20260505204404 64 239 17.0 20.0 0.00 0.00 0.00 47 1009.9
20260505203901 63 227 7.0 9.0 0.00 0.00 0.00 49 1009.9
20260505203357 64 244 11.0 15.0 0.00 0.00 0.00 47 1010.2
20260505202853 62 231 7.0 9.0 0.00 0.00 0.00 50 1010.1
20260505202350 62 241 11.0 13.0 0.00 0.00 0.00 50 1010.5
20260505201846 62 256 6.0 7.0 0.00 0.00 0.00 51 1010.1
20260505201344 62 260 17.0 20.0 0.00 0.00 0.00 51 1010.1
20260505200842 61 247 12.0 15.0 0.00 0.00 0.00 51 1010.3
20260505200338 62 260 7.0 10.0 0.00 0.00 0.00 51 1010.3
20260505195834 62 236 8.0 14.0 0.00 0.00 0.00 50 1010.1
20260505195331 61 251 7.0 10.0 0.00 0.00 0.00 51 1010.4
20260505194828 62 240 5.0 7.0 0.00 0.00 0.00 50 1010.5
20260505194326 61 242 7.0 9.0 0.00 0.00 0.00 51 1010.4
20260505193821 61 252 7.0 9.0 0.00 0.00 0.00 51 1010.4
20260505193319 61 239 11.0 11.0 0.00 0.00 0.00 52 1010.3
20260505192817 62 248 9.0 13.0 0.00 0.00 0.00 50 1010.5
20260505192315 61 202 10.0 13.0 0.00 0.00 0.00 51 1010.3
20260505191812 62 228 5.0 8.0 0.00 0.00 0.00 50 1010.3
20260505191310 61 250 5.0 7.0 0.00 0.00 0.00 50 1010.4
20260505190807 62 197 5.0 8.0 0.00 0.00 0.00 50 1010.3